Regional Weather Roundup
Issued by NWS

Home | Current Version | Previous Version | Text Only | Print | Product List | Glossary On
Versions: 1 2 3 4 5 6 7 8 9 10 11 12 13 14 15 16 17 18 19 20 21 22 23 24 25 26 27 28 29 30 31 32 33 34 35 36 37 38 39 40 41 42 43 44 45 46 47 48 49 50
000
ASUS44 KMEG 310610
RWRTN
TENNESSEE HOURLY STATE WEATHER ROUNDUP
NATIONAL WEATHER SERVICE MEMPHIS TN
100 AM CDT SAT JUL 31 2021

TNZ002-004-019-021-049-052-054-088>092-310700-
WEST TENNESSEE

CITY           SKY/WX    TMP DP  RH WIND       PRES   REMARKS
MEMPHIS INTL   PTCLDY    85  76  74 E6        30.01F HX  94
NWS MEMPHIS      N/A     82 N/A N/A MISG        N/A
JACKSON        MOCLDY    75  72  90 CALM      30.02F
DYERSBURG      PTCLDY    78  77  96 CALM      30.03F
COVINGTON        N/A     75  75 100 CALM      30.01F
UNION CITY     MOCLDY    77  75  94 NE5       30.01F
PARIS          CLOUDY    75  73  94 NE5       30.03F
LEXINGTON      PTCLDY    75  75 100 CALM      30.01F
SELMER         PTCLDY    75  72  88 CALM      30.02F
SAVANNAH       CLOUDY    73  73 100 CALM      30.01F
$$

TNZ008-025-027-028-033-062-065-066-310700-
NORTH MIDDLE TENNESSEE

CITY           SKY/WX    TMP DP  RH WIND       PRES   REMARKS
NASHVILLE      MOCLDY    78  70  76 NE7       30.03F
DICKSON        MOCLDY    73  72  94 NE5       30.02F
PORTLAND       CLOUDY    70  70 100 CALM      30.03F
CLARKSVILLE    MOCLDY    73  68  84 CALM      30.03F
LEBANON        CLOUDY    75  72  88 N3        30.00F
SMYRNA           N/A    N/A N/A N/A MISG        N/A
MURFREESBORO   MOCLDY    77  72  83 N5        30.00F
COOKEVILLE     CLOUDY    73  73 100 CALM      30.02F
LIVINGSTON     MOCLDY    70  68  94 N3        30.04F FOG
GALLATIN       CLOUDY    75  72  88 N5        30.05S FOG
CROSSVILLE     PTCLDY    69  69 100 CALM      30.08F FOG
$$

TNZ061-075-076-078-094-096-097-310700-
SOUTH MIDDLE TENNESSEE

CITY           SKY/WX    TMP DP  RH WIND       PRES   REMARKS
LAWRENCEBURG   CLOUDY    75  73  94 CALM      30.03F
LEWISBURG      PTCLDY    75  75 100 CALM      30.01F
FAYETTEVILLE   CLEAR     73  73 100 CALM      30.04F
TULLAHOMA      CLEAR     75  73  94 CALM      30.02F
WINCHESTER     MOCLDY    73  72  94 CALM      30.02F
MCMINNVILLE    PTCLDY    73  72  94 CALM      30.02F
SHELBYVILLE    CLEAR     73  73 100 CALM      30.01F FOG
$$

TNZ017-018-042-046-047-310700-
NORTHEAST TENNESSEE

CITY           SKY/WX    TMP DP  RH WIND       PRES   REMARKS
TRI CITIES     CLEAR     70  66  87 N3        30.04F
ELIZABETHTON   CLOUDY    66  64  94 CALM      30.04F
GREENEVILLE    CLOUDY    70  64  83 CALM      30.04F
$$

TNZ012-013-036-069-073-074-310700-
CENTRAL EAST TENNESSEE

CITY           SKY/WX    TMP DP  RH WIND       PRES   REMARKS
KNOXVILLE      MOCLDY    78  70  76 CALM      30.02F
OAK RIDGE      CLEAR     75  70  84 CALM      30.03F
DOWNTOWN KNOXV CLOUDY    73  72  94 CALM      30.02F
GATLINBURG     CLOUDY    72  70  94 CALM      30.02F
JACKSBORO      CLOUDY    70  68  94 CALM        N/A
$$

TNZ083-085-099-310700-
SOUTHEAST TENNESSEE

CITY           SKY/WX    TMP DP  RH WIND       PRES   REMARKS
CHATTANOOGA    MOCLDY    80  72  76 N5        30.00F
DAYTON         MOCLDY    77  73  88 CALM      30.00F
$$

SKY/WX REPORTED AS FAIR MEANS FEW OR NO CLOUDS BELOW
12 THOUSAND FEET.




USA.gov is the U.S. government's official web portal to all federal, state and local government web resources and services.